TimeHST,TemperatureF,Dew PointF,Humidity,Sea Level PressureIn,VisibilityMPH,Wind Direction,Wind SpeedMPH,Gust SpeedMPH,PrecipitationIn,Events,Conditions,WindDirDegrees,DateUTC
12:53 AM,77.0,64.9,66,30.05,10.0,NE,11.5,-,N/A,,Partly Cloudy,40,2013-08-28 10:53:00
1:53 AM,77.0,66.0,69,30.04,10.0,NE,10.4,-,N/A,,Scattered Clouds,50,2013-08-28 11:53:00
2:53 AM,75.0,64.0,69,30.04,10.0,NW,4.6,-,N/A,,Partly Cloudy,310,2013-08-28 12:53:00
3:53 AM,71.1,64.0,78,30.02,10.0,WNW,4.6,-,N/A,,Partly Cloudy,290,2013-08-28 13:53:00
4:53 AM,70.0,64.0,81,30.02,10.0,WNW,6.9,-,N/A,,Clear,290,2013-08-28 14:53:00
5:53 AM,68.0,63.0,84,30.03,10.0,WNW,6.9,-,N/A,,Clear,290,2013-08-28 15:53:00
6:53 AM,70.0,63.0,78,30.04,10.0,WNW,6.9,-,N/A,,Clear,290,2013-08-28 16:53:00
7:53 AM,75.9,64.0,67,30.04,10.0,WNW,4.6,-,N/A,,Clear,290,2013-08-28 17:53:00
8:53 AM,81.0,64.0,56,30.04,10.0,NNE,8.1,-,N/A,,Clear,20,2013-08-28 18:53:00
9:53 AM,82.0,64.9,56,30.03,10.0,ENE,9.2,-,N/A,,Clear,60,2013-08-28 19:53:00
10:53 AM,82.9,66.9,58,30.02,10.0,NE,11.5,-,N/A,,Clear,50,2013-08-28 20:53:00
11:53 AM,82.9,68.0,60,29.99,10.0,NE,13.8,-,N/A,,Clear,50,2013-08-28 21:53:00
12:53 PM,86.0,70.0,59,29.97,10.0,NE,16.1,-,N/A,,Partly Cloudy,40,2013-08-28 22:53:00
1:53 PM,87.1,68.0,53,29.97,10.0,NE,18.4,25.3,N/A,,Mostly Cloudy,40,2013-08-28 23:53:00
2:53 PM,84.9,70.0,61,29.96,10.0,NNE,18.4,-,N/A,,Mostly Cloudy,20,2013-08-29 00:53:00
3:53 PM,82.9,71.1,67,29.95,10.0,NNE,17.3,-,N/A,,Overcast,30,2013-08-29 01:53:00
4:53 PM,81.0,70.0,69,29.94,10.0,NNE,16.1,-,N/A,,Overcast,20,2013-08-29 02:53:00
5:53 PM,82.0,69.1,65,29.94,10.0,NNE,13.8,-,N/A,,Scattered Clouds,20,2013-08-29 03:53:00
6:53 PM,79.0,70.0,74,29.95,10.0,NNE,12.7,-,N/A,,Scattered Clouds,20,2013-08-29 04:53:00
7:53 PM,78.1,71.1,79,29.97,10.0,NNE,11.5,-,0.00,,Mostly Cloudy,30,2013-08-29 05:53:00
8:53 PM,78.1,71.1,79,29.98,10.0,NNE,11.5,-,N/A,,Clear,30,2013-08-29 06:53:00
9:31 PM,75.2,71.6,89,29.99,7.0,ENE,11.5,18.4,0.01,Rain,Light Rain,60,2013-08-29 07:31:00
9:44 PM,75.2,71.6,89,29.99,10.0,NNE,12.7,-,0.01,,Overcast,30,2013-08-29 07:44:00
9:53 PM,75.9,72.0,87,29.98,10.0,NNE,10.4,-,0.01,,Overcast,30,2013-08-29 07:53:00
10:53 PM,77.0,71.1,82,29.98,10.0,NE,12.7,-,N/A,,Partly Cloudy,40,2013-08-29 08:53:00
11:53 PM,77.0,70.0,79,29.97,10.0,NE,12.7,-,N/A,,Partly Cloudy,40,2013-08-29 09:53:00